Погода в Григорове

Россия / Костромская область     58°10′11″N   41°29′20″E
темп.,
°C
ветер,
м/с
пор.,
м/с
влажн.,
%
обл.,
%
осадки,
мм/ч
давл.,
гПа
погр.,
м
17 июня, чт
чт1700:00+11сз2372100 0.0 101741
03:00+10зсз246848 0.0 101978
06:00+13сз39654 0.0 1019315
09:00+18сз58458 0.0 10211223
12:00+20сз6103910 0.0 10222024
15:00+21ссз584156 0.0 10222214
18:00+19ссз255610 0.0 10231050
21:00+14св11750 0.0 102411
18 июня, пт
пт1800:00+11вюв22790 0.0 102626
03:00+11ю228014 0.0 102731
06:00+15ююз13705 0.0 1027136
09:00+20юз235217 0.0 1027724
12:00+24зюз343930 0.0 10261749
15:00+25зюз453938 0.0 10241767
18:00+24юз4751100 0.0 1023950
21:00+18юз3884100 0.0 1023145
19 июня, сб
сб1900:00+17юз312824 0.0 1024256
03:00+16юз3128311 0.0 1024273
06:00+18зюз49785 0.0 1024273
09:00+24зюз47562 0.0 1023719
12:00+27з58420 0.0 10221838
15:00+29з57404 0.0 10212049
18:00+27зсз47520 0.0 10211452
21:00+21юз39815 0.0 1022184
20 июня, вс
вс2000:00+18зюз311845 0.0 1022218
03:00+17зюз38905 0.0 1023152
06:00+19зюз37785 0.0 1023216
09:00+25зюз35575 0.0 1022608
12:00+28зюз45454 0.0 10221609
15:00+29юз45455 0.0 10211793
18:00+26юз465537 0.0 1020745
21:00+20юз310810 0.0 1020217
21 июня, пн
пн2100:00+18юз36920 0.0 102097
03:00+16юз36900 0.0 1021104
06:00+19юз26740 0.0 1021171
09:00+25зюз34570 0.0 1020602
12:00+29з35430 0.0 10202034
15:00+30зсз343867 0.0 10192539
18:00+29зюз24500 0.0 1019339
21:00+23з236590 0.0 102040